Zurück zum Katalog

ONEWEB-0562

AktivKommunikationPO
NORAD 55799·PAYLOAD·🇬🇧 United Kingdom

Gestartet Mar 9, 2023 von Cape Canaveral Space Force Station

Loading…

Nächste Überflüge (nächste 24 Stunden)

TLE

AktuellSource: CelesTrak SupGP

Epoche: Sep 14, 2026, 08:04 UTC

1 55799C 23029D   26257.33664769  .00002972  00000+0  73180-2 0  2574
2 55799  87.9137 256.6635 0002685 103.1471   9.7506 13.20766682    12

Verfolge ONEWEB-0562 in Echtzeit mit AllMySat

Download on the App Store